Tracking 29606 objects as of 19-Sep-2024
HD Live streaming from Space Station
objects crossing your sky now

STARLINK-31997

Track STARLINK-31997 now!
10-day predictions
STARLINK-31997 is classified as:


NORAD ID: 60288
Int'l Code: 2024-132L
Perigee: 453.8 km
Apogee: 455.1 km
Inclination: 53.2 °
Period: 93.5 minutes
Semi major axis: 6825 km
RCS: Unknown
Launch date: July 28, 2024
Source: United States (US)
Launch site: AIR FORCE EASTERN TEST RANGE (AFETR)
Your satellite tracking list
Your tracking list is empty




NASA's NSSDC Master Catalog

Two Line Element Set (TLE):
1 60288U 24132L   24262.57176780 -.00002255  00000-0 -46482-4 0  9997
2 60288  53.1600  27.4028 0000920 104.1459 255.9648 15.39584285  9322
Source of the keplerian elements: AFSPC